{"data":{"norad_id":66567,"epoch":"2026-09-20T20:55:18.727392Z","epoch_age_seconds":57033,"freshness":"FRESH","line1":"1 66567U 25268L   26263.87174453  .00013315  00000+0  49221-3 0  9994","line2":"2 66567  43.0020 324.4901 0000829 274.8330  85.2427 15.27599622 47816","mean_motion":15.27599622,"eccentricity":8.29e-5,"inclination_deg":43.002,"raan_deg":324.4901,"arg_perigee_deg":274.833,"mean_anomaly_deg":85.2427,"bstar":0.00049221,"rev_number":4781,"period_min":94.265537858322,"perigee_km":482.42155388501,"apogee_km":483.5591287982,"semimajor_km":6861.1273413416,"source":"CELESTRAK","updated_at":"2026-09-21T09:00:35.971599Z"}}